DW3201 Weather Reports


time (UTC)temp
F
wind
direction
speed
knots
gust
knots
rain 1hr
in
rain 24hr
in
rain mn
in
humidity
%
barometer
mb
20260502163107 52 301 2.6 5.2 0.00 0.01 0.01 40 1018.1
20260502161558 52 245 0.9 6.1 0.00 0.01 0.01 43 1018.2
20260502160104 51 305 0.9 7.8 0.00 0.01 0.01 42 1018.3
20260502151555 48 293 2.6 7.8 0.00 0.01 0.01 54 1018.5
20260502130105 39 271 0.9 2.6 0.00 0.00 0.00 86 1019.0
20260502123104 36 269 0.0 1.7 0.00 0.00 0.00 88 1018.9
20260502121558 34 0 0.0 0.9 0.00 0.00 0.00 90 1018.9
20260502114557 32 274 0.9 1.7 0.00 0.00 0.00 92 1018.5
20260502113057 31 263 0.0 0.9 0.00 0.00 0.00 93 1018.6
20260502111555 30 0 0.0 0.9 0.00 0.00 0.00 94 1018.5
20260502110055 28 0 0.0 0.0 0.00 0.00 0.00 94 1018.5
20260502104555 28 0 0.0 0.0 0.00 0.00 0.00 94 1018.5
20260502103051 28 0 0.0 0.0 0.00 0.00 0.00 94 1018.4
20260502101554 28 0 0.0 0.0 0.00 0.00 0.00 94 1018.4
20260502070100 31 0 0.0 0.0 0.00 0.00 0.00 94 1018.3
20260502064556 31 0 0.0 0.0 0.00 0.00 0.00 94 1018.3
20260502063057 31 0 0.0 0.0 0.00 0.00 0.00 93 1018.4
20260502061554 31 0 0.0 0.0 0.00 0.00 0.00 94 1018.5
20260502060100 31 0 0.0 0.9 0.00 0.00 0.00 93 1018.6
20260502054557 31 0 0.0 0.9 0.00 0.00 0.00 93 1018.4
20260502053053 31 281 0.9 0.9 0.00 0.00 0.00 93 1018.4
20260502051601 31 0 0.0 0.9 0.00 0.00 0.00 93 1018.5
20260502050055 32 0 0.0 0.0 0.00 0.00 0.00 93 1018.6
20260502044555 31 0 0.0 0.0 0.00 0.01 0.00 92 1018.6
20260502043059 32 271 0.0 0.9 0.00 0.01 0.00 92 1018.6
20260502041555 32 0 0.0 0.9 0.00 0.01 0.00 92 1018.4
20260502040057 32 271 0.0 0.9 0.00 0.01 0.00 90 1018.4
20260502034555 33 0 0.0 0.9 0.00 0.02 0.00 90 1018.5
20260502033052 33 0 0.0 0.0 0.00 0.02 0.00 89 1018.4
20260502031552 34 0 0.0 0.0 0.00 0.02 0.00 87 1018.3
20260502030054 35 0 0.0 0.9 0.00 0.02 0.00 86 1018.2
20260502024549 37 0 0.0 0.9 0.00 0.02 0.00 76 1018.2
20260502023052 38 0 0.0 1.7 0.00 0.02 0.00 76 1018.2
20260502021552 39 0 0.0 3.5 0.00 0.02 0.00 76 1018.2
20260502020054 39 0 0.0 2.6 0.00 0.02 0.00 76 1018.0
20260502014559 39 93 0.0 1.7 0.00 0.02 0.00 76 1017.8
20260502013054 39 337 0.0 0.9 0.00 0.02 0.00 74 1017.7
20260502011553 40 0 0.0 2.6 0.00 0.02 0.00 73 1017.6
20260502010059 40 133 0.9 3.5 0.00 0.02 0.00 69 1017.4
20260502004603 41 162 2.6 5.2 0.00 0.03 0.00 70 1017.4
20260502003053 41 70 4.3 6.1 0.00 0.03 0.00 71 1017.4
20260502001556 41 93 2.6 5.2 0.00 0.03 0.00 71 1017.3
20260502000108 41 89 2.6 7.0 0.00 0.03 0.00 70 1017.3
20260501234555 41 77 4.3 7.0 0.00 0.04 0.00 71 1017.2
20260501233103 41 57 4.3 8.7 0.00 0.04 0.00 72 1017.2
20260501231600 41 65 5.2 9.6 0.00 0.04 0.00 74 1017.2
20260501230055 41 349 5.2 11.3 0.00 0.04 0.00 73 1017.3
20260501224553 41 43 7.8 11.3 0.00 0.04 0.00 77 1017.4
20260501223100 41 49 8.7 13.0 0.00 0.04 0.00 78 1017.5
20260501221600 41 70 5.2 8.7 0.00 0.04 0.00 80 1017.4
20260501220057 41 75 7.8 12.2 0.00 0.04 0.00 80 1017.1
20260501214554 42 71 7.8 10.4 0.00 0.05 0.00 80 1016.8
20260501213057 42 98 0.9 3.5 0.00 0.05 0.00 75 1016.7
20260501211551 42 94 5.2 8.7 0.00 0.05 0.00 78 1016.5
20260501210054 42 87 7.0 9.6 0.00 0.05 0.00 78 1016.5
20260501204553 42 67 4.3 6.1 0.00 0.06 0.00 73 1016.6
20260501203053 43 46 0.9 3.5 0.00 0.06 0.00 73 1016.7
20260501201609 42 67 1.7 5.2 0.00 0.06 0.00 72 1016.7
20260501200054 42 101 2.6 6.1 0.00 0.06 0.00 72 1016.8
20260501194551 42 80 4.3 6.1 0.00 0.06 0.00 72 1016.6
20260501193059 42 60 3.5 5.2 0.00 0.06 0.00 72 1016.5
20260501191552 42 94 3.5 6.1 0.00 0.06 0.00 71 1016.5
20260501190053 43 73 0.9 4.3 0.00 0.06 0.00 71 1016.5
20260501184559 43 82 3.5 9.6 0.00 0.06 0.00 71 1016.3
20260501183054 43 67 5.2 8.7 0.00 0.06 0.00 70 1016.0
20260501181553 45 58 0.9 5.2 0.00 0.06 0.00 60 1016.0
20260501180057 45 0 0.9 4.3 0.00 0.06 0.00 55 1016.0
20260501174553 46 343 2.6 5.2 0.00 0.06 0.00 53 1016.0
20260501173050 46 79 0.9 5.2 0.00 0.06 0.00 54 1015.9